EW6077 Weather Reports


Display with metric or nautical units.
time (UTC)temp
F
wind
direction
speed
MPH
gust
MPH
rain 1hr
in
rain 24hr
in
rain mn
in
humidity
%
barometer
mb
20180223121458 1 267 0.0 0.0 0.00 0.00 0.00 87 1027.6
20180223115954 0 267 0.0 0.0 0.00 0.00 0.00 89 1027.7
20180223114451 -3 267 0.0 0.0 0.00 0.00 0.00 87 1028.0
20180223112944 -5 267 0.0 0.0 0.00 0.00 0.00 85 1028.1
20180223111453 -6 267 0.0 0.0 0.00 0.00 0.00 85 1028.1
20180223105935 -7 265 0.0 0.0 0.00 0.00 0.00 85 1028.1
20180223104435 -9 265 0.0 0.0 0.00 0.00 0.00 85 1028.1
20180223102927 -10 280 0.0 0.0 0.00 0.00 0.00 84 1028.2
20180223101422 -10 281 1.0 0.0 0.00 0.00 0.00 84 1028.3
20180223095917 -10 281 0.0 0.0 0.00 0.00 0.00 83 1028.3
20180223094414 -10 281 0.0 0.0 0.00 0.00 0.00 82 1028.4
20180223092912 -10 281 1.0 0.0 0.00 0.00 0.00 83 1028.8
20180223091407 -9 280 1.0 0.0 0.00 0.00 0.00 84 1028.6
20180223085902 -8 279 2.0 0.0 0.00 0.00 0.00 84 1028.9
20180223084359 -7 277 2.0 0.0 0.00 0.00 0.00 84 1028.9
20180223082852 -7 275 2.0 0.0 0.00 0.00 0.00 85 1028.8
20180223081347 -8 271 0.0 0.0 0.00 0.00 0.00 83 1028.9
20180223075844 -8 270 0.0 0.0 0.00 0.00 0.00 83 1028.9
20180223074341 -8 269 1.0 0.0 0.00 0.00 0.00 84 1029.0
20180223072835 -6 263 1.0 0.0 0.00 0.00 0.00 83 1029.0
20180223071331 -6 259 1.0 0.0 0.00 0.00 0.00 85 1029.0
20180223065826 -7 252 1.0 0.0 0.00 0.00 0.00 85 1029.2
20180223064322 -7 253 1.0 0.0 0.00 0.00 0.00 84 1029.3
20180223062818 -7 253 1.0 0.0 0.00 0.00 0.00 84 1028.9
20180223061313 -6 253 1.0 0.0 0.00 0.00 0.00 84 1029.1
20180223055814 -6 253 1.0 0.0 0.00 0.00 0.00 83 1029.0
20180223054305 -5 278 2.0 0.0 0.00 0.00 0.00 84 1029.0
20180223052803 -4 281 2.0 0.0 0.00 0.00 0.00 85 1029.1
20180223051255 -3 311 2.0 0.0 0.00 0.00 0.00 85 1028.8
20180223045750 -4 272 1.0 0.0 0.00 0.00 0.00 86 1028.9
20180223044247 -4 270 1.0 0.0 0.00 0.00 0.00 86 1029.0
20180223042741 -6 267 2.0 0.0 0.00 0.00 0.00 85 1029.1
20180223041241 -6 267 2.0 0.0 0.00 0.00 0.00 85 1029.2
20180223035737 -5 254 1.0 0.0 0.00 0.00 0.00 85 1029.4
20180223034229 -4 250 0.0 0.0 0.00 0.00 0.00 83 1029.4
20180223032725 -4 250 1.0 0.0 0.00 0.00 0.00 84 1029.6
20180223031221 -3 250 1.0 0.0 0.00 0.00 0.00 82 1029.3
20180223025721 -2 249 1.0 0.0 0.00 0.00 0.00 84 1029.3
20180223024210 -1 249 1.0 0.0 0.00 0.00 0.00 83 1029.2
20180223022706 -1 243 0.0 0.0 0.00 0.00 0.00 86 1029.2
20180223021202 -2 238 2.0 0.0 0.00 0.00 0.00 82 1029.1
20180223015658 0 237 1.0 0.0 0.00 0.00 0.00 82 1029.2
20180223014153 0 236 0.0 0.0 0.00 0.00 0.00 83 1029.2
20180223012651 0 236 1.0 0.0 0.00 0.00 0.00 79 1029.0
20180223011143 2 236 0.0 0.0 0.00 0.00 0.00 79 1029.0
20180223005640 3 236 2.0 0.0 0.00 0.00 0.00 76 1028.9
20180223004138 5 236 1.0 0.0 0.00 0.00 0.00 76 1028.6
20180223002635 6 236 2.0 0.0 0.00 0.00 0.00 73 1028.8
20180223001131 9 254 1.0 0.0 0.00 0.00 0.00 69 1028.8
20180222235623 12 259 1.0 0.0 0.00 0.00 0.00 67 1028.7
20180222234118 13 260 2.0 0.0 0.00 0.00 0.00 66 1028.7
20180222232617 14 257 3.0 0.0 0.00 0.00 0.00 66 1028.5
20180222231109 14 269 5.0 0.0 0.00 0.00 0.00 66 1028.5
20180222225605 16 277 5.0 0.0 0.00 0.00 0.00 65 1028.4
20180222224102 16 255 5.0 0.0 0.00 0.00 0.00 63 1028.4
20180222222602 16 241 5.0 0.0 0.00 0.00 0.00 63 1028.6
20180222221053 17 244 4.0 0.0 0.00 0.00 0.00 62 1028.6
20180222215548 16 244 4.0 0.0 0.00 0.00 0.00 62 1028.8
20180222214044 16 239 6.0 0.0 0.00 0.00 0.00 62 1028.9
20180222212540 16 223 4.0 0.0 0.00 0.00 0.00 62 1029.0
20180222211034 15 277 5.0 0.0 0.00 0.00 0.00 61 1029.1
20180222205533 16 244 5.0 0.0 0.00 0.00 0.00 60 1029.3
20180222204026 15 251 5.0 0.0 0.00 0.00 0.00 60 1029.2
20180222202522 15 211 5.0 0.0 0.00 0.00 0.00 60 1029.3
20180222201017 14 226 5.0 0.0 0.00 0.00 0.00 62 1029.6
20180222195514 13 208 5.0 0.0 0.00 0.00 0.00 61 1029.7
20180222194008 13 234 4.0 0.0 0.00 0.00 0.00 62 1029.9
20180222192504 12 238 4.0 0.0 0.00 0.00 0.00 63 1030.2
20180222191003 11 213 3.0 0.0 0.00 0.00 0.00 65 1030.5
20180222185458 10 218 3.0 0.0 0.00 0.00 0.00 65 1030.7
20180222183955 9 225 4.0 0.0 0.00 0.00 0.00 66 1030.9
20180222182448 8 243 4.0 0.0 0.00 0.00 0.00 67 1031.0
20180222180943 7 240 5.0 0.0 0.00 0.00 0.00 68 1031.2
20180222175438 7 192 6.0 0.0 0.00 0.00 0.00 70 1031.1
20180222173934 7 219 5.0 0.0 0.00 0.00 0.00 69 1031.1
20180222172429 6 212 3.0 0.0 0.00 0.00 0.00 73 1030.9
20180222170926 5 218 2.0 0.0 0.00 0.00 0.00 79 1031.0
20180222165421 3 198 1.0 0.0 0.00 0.00 0.00 83 1030.9
20180222163917 1 174 3.0 0.0 0.00 0.00 0.00 82 1031.2
20180222162412 -1 174 3.0 0.0 0.00 0.00 0.00 83 1031.3
20180222160907 -2 173 4.0 0.0 0.00 0.00 0.00 82 1031.2
20180222155402 -3 158 3.0 0.0 0.00 0.00 0.00 82 1031.2
20180222153903 -4 138 0.0 0.0 0.00 0.00 0.00 81 1030.6
20180222152354 -3 138 0.0 0.0 0.00 0.00 0.00 83 1030.8
20180222150853 -7 138 0.0 0.0 0.00 0.00 0.00 85 1030.7
20180222145345 -11 138 1.0 0.0 0.00 0.00 0.00 82 1030.7
20180222143841 -12 135 0.0 0.0 0.00 0.00 0.00 82 1030.4
20180222142337 -14 135 0.0 0.0 0.00 0.00 0.00 85 1030.3
20180222140833 -17 135 1.0 0.0 0.00 0.00 0.00 81 1030.3
20180222135329 -18 135 1.0 0.0 0.00 0.00 0.00 79 1030.2
20180222133853 -17 135 2.0 0.0 0.00 0.00 0.00 81 1030.1
20180222132323 -17 135 1.0 0.0 0.00 0.00 0.00 79 1030.3
20180222130814 -15 135 0.0 0.0 0.00 0.00 0.00 80 1030.1
20180222125310 -14 135 0.0 0.0 0.00 0.00 0.00 80 1030.5
20180222123806 -14 135 0.0 0.0 0.00 0.00 0.00 81 1030.3